Regional Weather Roundup
Issued by NWS

Home | Current Version | Previous Version | Text Only | Print | Product List | Glossary On
Versions: 1 2 3 4 5 6 7 8 9 10 11 12 13 14 15 16 17 18 19 20 21 22 23 24 25 26 27 28 29 30 31 32 33 34 35 36 37 38 39 40 41 42 43 44 45 46 47 48 49 50
000
ASUS44 KFWD 181315
RWRTX
NORTH TEXAS HOURLY WEATHER ROUNDUP
NATIONAL WEATHER SERVICE FORT WORTH TX
700 AM CST THU DEC 18 2014

NOTE: "FAIR" INDICATES FEW OR NO CLOUDS BELOW 12,000 FEET WITH NO
SIGNIFICANT WEATHER AND/OR OBSTRUCTIONS TO VISIBILITY.

TXZ118-119-181400-
DALLAS/FORT WORTH METROPLEX

CITY           SKY/WX    TMP DP  RH WIND       PRES   REMARKS
DFW AIRPORT    DRIZZLE   43  42  97 E5        30.13R FOG
DALLAS LOVE    CLOUDY    43  42  97 SE5       30.14R FOG
FTW MEACHAM    FOG       44  42  93 E7        30.12R VSB 1
DAL-EXECUTIVE  CLOUDY    44  42  93 E7        30.12R FOG
FTW-ALLIANCE   DRIZZLE   42  42 100 E5        30.13R FOG     WCI  39
FTW-SPINKS     FOG       45  45 100 CALM      30.14R VSB 1
ARLINGTON        N/A    N/A N/A N/A MISG      30.13R
ADDISON        CLOUDY    43  41  93 E5        30.14R FOG
MESQUITE       CLOUDY    43  43 100 CALM      30.14  FOG
LANCASTER      CLOUDY    43  41  93 E5        30.14R FOG
$$

TXZ091>094-102>105-117-120-121-131>134-181400-
NORTH CENTRAL TEXAS

CITY           SKY/WX    TMP DP  RH WIND       PRES   REMARKS
SHRMAN/DENISON CLOUDY    40  40 100 CALM      30.15R FOG
GAINESVILLE    CLOUDY    40  39  99 E5        30.16R FOG     WCI  36
BOWIE          CLOUDY    40  40 100 E3        30.12R FOG
BRIDGEPORT     CLOUDY    42  42 100 E7        30.14R FOG     WCI  38
DECATUR        CLOUDY    41  41 100 E5        30.12R FOG     WCI  38
DENTON         CLOUDY    43  42  97 CALM      30.14R FOG
MCKINNEY       CLOUDY    41  41 100 E5        30.14R FOG     WCI  38
GREENVILLE     CLOUDY    41  39  93 E3        30.15R FOG
ROCKWALL       CLOUDY    42  42  99 E6        30.13R FOG     WCI  38
TERRELL        CLOUDY    44  42  93 E6        30.14R FOG
WAXAHACHIE     FOG       43  43 100 E3        30.13R VSB 3/4
CLEBURNE       CLOUDY    45  45 100 E3        30.13R
GRANBURY       CLOUDY    46  45  94 SE3       30.13R FOG
$$

TXZ083>090-098>101-113>116-127>130-139>142-154-155-181400-
WESTERN NORTH TEXAS

CITY           SKY/WX    TMP DP  RH WIND       PRES   REMARKS
WICHITA FALLS  CLOUDY    41  40  96 SE10      30.10R FOG     WCI  35
WF-KICKAPOO    CLOUDY    42  42 100 E9        30.12R FOG     WCI  36
VERNON         CLOUDY    42  39  87 E6        30.11R WCI  39
ABILENE        CLEAR     44  43  96 SW8       30.09R WCI  39
ABILENE-DYESS  CLEAR     39  34  84 SW3       30.08R
BRECKENRIDGE   CLOUDY    49  49  97 S3        30.08S FOG
GRAHAM         CLOUDY    44  44 100 SE6       30.08R FOG
MINERAL WELLS  FOG       44  43  96 SE9       30.11R VSB 1   WCI  39
STEPHENVILLE   CLOUDY    46  44  93 CALM      30.12S VSB 3/4
COMANCHE       CLOUDY    50  50 100 SW3       30.10R
BROWNWOOD      CLOUDY    50  50 100 SW5       30.11R FOG
COLEMAN        CLOUDY    50  49  97 W3        30.10R
$$

TXZ143>147-156>162-174-175-181400-
CENTRAL TEXAS

CITY           SKY/WX    TMP DP  RH WIND       PRES   REMARKS
WACO           CLOUDY    46  45  96 CALM      30.12R FOG
WACO-TSTC      CLOUDY    46  46 100 CALM      30.13
WACO-MCGREGOR  CLOUDY    46  43  87 CALM      30.13R
HILLSBORO      CLOUDY    46  44  93 E3        30.12R FOG
CORSICANA      FOG       46  44  93 E6        30.14R VSB 3/4
MEXIA          FOG       46  45  98 NE5       30.12R VSB 1/2
HEARNE         CLOUDY    48  48  99 CALM      30.13R FOG
CAMERON        FOG       48  47  99 N3        30.12R VSB 3/4
TEMPLE         CLOUDY    46  43  87 CALM      30.11R
KILLEEN        CLOUDY    46  46 100 VRB1      30.11R FOG
KILLEEN-SKYLRK CLOUDY    46  43  87 CALM      30.09S VSB 1
FORT HOOD      CLOUDY    46  46 100 CALM      30.11R FOG
GATESVILLE     CLOUDY    46  46 100 CALM      30.13S
HAMILTON       FOG       47  47 100 SE5       30.11R VSB 3/4
LAMPASAS       CLOUDY    48  47  99 CALM      30.10R FOG
$$

TXZ095>097-106>112-122>126-135>138-148>153-164>167-181400-
EAST TEXAS

CITY           SKY/WX    TMP DP  RH WIND       PRES   REMARKS
PARIS          CLOUDY    39  37  93 E8        30.17R WCI  34
SULPHUR SPRNGS CLOUDY    42  41  98 SE7       30.17R WCI  37
MOUNT PLEASANT CLOUDY    41  41  99 SE6       30.18R WCI  37
MINEOLA        CLOUDY    43  43 100 CALM      30.16R FOG
TYLER          CLOUDY    44  42  93 E7        30.14R FOG
LONGVIEW       CLOUDY    44  42  93 E7        30.15R
MARSHALL       CLOUDY    46  44  93 CALM      30.19R
ATHENS         CLOUDY    43  43 100 E3        30.13R FOG
PALESTINE      CLOUDY    47  46  97 NE5       30.15R FOG
JACKSONVILLE   CLOUDY    45  45  99 NE6       30.14R FOG
HENDERSON      CLOUDY    44  44  99 E5        30.16R
NACOGDOCHES    CLOUDY    46  43  87 CALM      30.15R
LUFKIN         CLOUDY    52  46  80 NE7       30.13R
$$

SUPPLEMENTAL OBSERVATIONS (CENTRAL)

CITY           SKY/WX    TMP DP  RH WIND       PRES   REMARKS
LAKE TEXOMA      N/A     39  37  93 E6          N/A  WCI  35
CADDO GRASSLND   N/A     39  36  87 E2          N/A
PAT MAYSE LAKE   N/A     39  37  93 N2          N/A
GREENVILLE       N/A     41  37  87 E3          N/A
CEDAR HILL       N/A     45  43  93 E1          N/A
ATHENS           N/A     45  43  93 E7          N/A
PALESTINE        N/A     46  43  87 NE3         N/A
LAKE LIMESTONE   N/A     46  45  93 NE5         N/A
MCGREGOR         N/A     46  45  93 E2          N/A
TEMPLE           N/A     46  45  93 N3          N/A
$$

SUPPLEMENTAL OBSERVATIONS (WEST)

CITY           SKY/WX    TMP DP  RH WIND       PRES   REMARKS
MILLERS CREEK    N/A     46  43  87 W7          N/A
POSSUM KINGDOM   N/A     45  43  93 E5          N/A
LBJ GRASSLAND    N/A     43  41  93 SE5         N/A
GRANBURY         N/A     45  41  87 SE5         N/A
COMANCHE         N/A     50  48  93 SW7         N/A
HAMBY            N/A     39  36  87 S3          N/A
IVIE RESERVOIR   N/A     52  48  87 SW7         N/A
COLORADO BEND    N/A     48  46  93 E1          N/A
$$

SUPPLEMENTAL OBSERVATIONS (EAST)

CITY           SKY/WX    TMP DP  RH WIND       PRES   REMARKS
CLARKSVILLE      N/A     39  37  93 E5          N/A  WCI  36
TEXARKANA        N/A     39  36  87 SE2         N/A
LINDEN           N/A     39  36  87 E5          N/A  WCI  36
CADDO LAKE       N/A     43  41  93 E3          N/A
GILMER           N/A     41  39  93 E3          N/A
HENDERSON        N/A     45  41  87 E6          N/A
LUFKIN           N/A     48  45  87 MISG        N/A
N SABINE NF      N/A     46  43  87 MISG        N/A
S SABINE NF      N/A     48  45  87 N2          N/A
$$

SUPPLEMENTAL OBSERVATIONS ARE A COLLECTION OF AUTOMATED INSTRUMENTS
THAT ARE MAINTAINED BY A VARIETY OF FEDERAL AND STATE AGENCIES.
CERTAIN ELEMENTS...SUCH AS HUMIDITY VALUES AND SUSTAINED WIND
SPEEDS...MAY BE APPROXIMATED.




USA.gov is the U.S. government's official web portal to all federal, state and local government web resources and services.